VK3GY-13 Weather Reports


Display with metric or nautical units.
time (UTC)temp
F
wind
direction
speed
MPH
gust
MPH
rain 1hr
in
rain 24hr
in
rain mn
in
humidity
%
barometer
mb
20200122101505 79 240 10.0 20.0 0.00 0.00 0.00 46 997.1
20200122100005 80 227 5.0 9.0 0.00 0.00 0.00 40 996.3
20200122094504 80 343 4.0 12.0 0.00 0.00 0.00 39 995.6
20200122093005 80 11 4.0 13.0 0.00 0.00 0.00 39 995.8
20200122090005 81 327 2.0 12.0 0.00 0.00 0.00 40 996.8
20200122084504 82 340 3.0 13.0 0.00 0.00 0.00 38 996.9
20200122083005 82 317 3.0 15.0 0.00 0.00 0.00 38 996.9
20200122081504 81 335 7.0 20.0 0.00 0.00 0.00 39 997.3
20200122080004 81 154 2.0 6.0 0.00 0.00 0.00 42 997.5
20200122074504 81 273 2.0 6.0 0.00 0.00 0.00 43 997.5
20200122073006 82 336 1.0 5.0 0.00 0.00 0.00 43 997.2
20200122071504 82 290 2.0 10.0 0.00 0.00 0.00 41 997.2
20200122070004 83 30 3.0 13.0 0.00 0.00 0.00 40 997.1
20200122064504 84 61 5.0 16.0 0.00 0.00 0.00 37 997.0
20200122061504 85 24 3.0 14.0 0.00 0.00 0.00 37 997.5
20200122060004 86 284 8.0 24.0 0.00 0.00 0.00 36 998.1
20200122054505 87 353 5.0 21.0 0.00 0.00 0.00 37 998.4
20200122053005 88 285 2.0 7.0 0.00 0.00 0.00 40 998.6
20200122051506 87 305 1.0 7.0 0.00 0.00 0.00 43 998.8
20200122050005 85 330 2.0 7.0 0.00 0.00 0.00 42 999.1
20200122044506 84 30 0.0 2.0 0.00 0.00 0.00 46 999.3
20200122043005 84 71 1.0 3.0 0.00 0.00 0.00 46 999.4
20200122041504 84 50 1.0 3.0 0.00 0.00 0.00 43 999.7
20200122040004 85 73 1.0 5.0 0.00 0.00 0.00 41 999.8
20200122034504 85 323 2.0 6.0 0.00 0.00 0.00 40 1000.3
20200122033005 85 353 2.0 12.0 0.00 0.00 0.00 39 1000.4
20200122031504 86 290 3.0 13.0 0.00 0.00 0.00 39 1000.7
20200122030004 85 339 4.0 10.0 0.00 0.00 0.00 38 1000.9
20200122024506 85 311 5.0 9.0 0.00 0.00 0.00 37 1001.2
20200122023004 85 309 5.0 12.0 0.00 0.00 0.00 36 1001.2
20200122021505 87 320 3.0 12.0 0.00 0.00 0.00 38 1001.3
20200122020004 87 282 3.0 12.0 0.00 0.00 0.00 38 1001.5
20200122014504 88 0 3.0 12.0 0.00 0.00 0.00 37 1001.6
20200122013006 87 66 3.0 15.0 0.00 0.00 0.00 39 1001.8
20200122011504 87 63 4.0 10.0 0.00 0.00 0.00 40 1001.8
20200122010005 86 56 2.0 9.0 0.00 0.00 0.00 43 1002.0
20200122004504 85 350 5.0 10.0 0.00 0.00 0.00 43 1002.5
20200122003005 83 263 2.0 12.0 0.00 0.00 0.00 48 1002.6
20200122001505 81 77 3.0 10.0 0.00 0.00 0.00 51 1002.9
20200122000004 78 336 2.0 12.0 0.00 0.00 0.00 56 1003.1
20200121234505 76 309 3.0 9.0 0.00 0.00 0.00 64 1003.5
20200121233005 73 55 1.0 9.0 0.00 0.00 0.00 69 1003.7
20200121231505 73 88 3.0 6.0 0.00 0.00 0.00 75 1003.8
20200121230005 71 61 1.0 6.0 0.00 0.00 0.00 78 1004.2
20200121224505 69 103 3.0 8.0 0.00 0.00 0.00 84 1004.2
20200121223005 67 114 3.0 7.0 0.00 0.00 0.00 90 1004.3
20200121221504 64 122 5.0 8.0 0.00 0.00 0.00 92 1004.5
20200121220004 63 128 5.0 7.0 0.00 0.00 0.00 94 1004.8
20200121214505 61 98 3.0 9.0 0.00 0.00 0.00 95 1005.0
20200121213004 59 121 5.0 10.0 0.00 0.00 0.00 94 1005.1
20200121211504 58 121 5.0 8.0 0.00 0.00 0.00 95 1005.4
20200121210005 57 118 4.0 9.0 0.00 0.00 0.00 95 1005.5
20200121204503 56 111 5.0 8.0 0.00 0.00 0.00 94 1005.6
20200121203004 55 101 3.0 7.0 0.00 0.00 0.00 94 1005.7
20200121201505 55 102 3.0 9.0 0.00 0.00 0.00 94 1005.7
20200121200005 55 114 3.0 8.0 0.00 0.00 0.00 93 1005.7
20200121194505 54 100 5.0 8.0 0.00 0.00 0.00 93 1005.8
20200121193005 54 115 3.0 7.0 0.00 0.00 0.00 93 1005.9
20200121191504 55 109 4.0 9.0 0.00 0.00 0.00 93 1005.9
20200121190005 54 111 3.0 7.0 0.00 0.00 0.00 93 1006.0
20200121184505 54 83 3.0 7.0 0.00 0.00 0.00 92 1006.0
20200121183005 54 98 4.0 8.0 0.00 0.00 0.00 92 1005.9
20200121181504 54 98 3.0 7.0 0.00 0.00 0.00 92 1005.9
20200121180005 55 109 3.0 9.0 0.00 0.00 0.00 92 1006.0
20200121174504 55 105 4.0 8.0 0.00 0.00 0.00 92 1006.1
20200121173004 55 107 3.0 8.0 0.00 0.00 0.00 91 1006.3
20200121171504 55 93 2.0 7.0 0.00 0.00 0.00 91 1006.3
20200121170005 55 84 1.0 3.0 0.00 0.00 0.00 91 1006.4
20200121164504 55 111 2.0 7.0 0.00 0.00 0.00 91 1006.3
20200121163005 55 113 2.0 8.0 0.00 0.00 0.00 91 1006.4
20200121161505 56 88 5.0 10.0 0.00 0.00 0.00 90 1006.5
20200121160005 56 102 4.0 8.0 0.00 0.00 0.00 90 1006.8
20200121154504 56 118 3.0 8.0 0.00 0.00 0.00 90 1006.9
20200121153005 56 94 2.0 9.0 0.00 0.00 0.00 89 1007.0
20200121151504 56 105 4.0 8.0 0.00 0.00 0.00 89 1007.1
20200121150005 57 105 5.0 10.0 0.00 0.00 0.00 89 1007.2
20200121144504 57 118 5.0 9.0 0.00 0.00 0.00 89 1007.2
20200121143004 57 101 3.0 8.0 0.00 0.00 0.00 88 1007.2
20200121141504 57 102 3.0 10.0 0.00 0.00 0.00 88 1007.2
20200121140005 57 107 6.0 12.0 0.00 0.00 0.00 88 1007.4
20200121134504 58 99 5.0 10.0 0.00 0.00 0.00 87 1007.7
20200121133005 58 101 6.0 12.0 0.00 0.00 0.00 87 1007.7
20200121131505 57 99 4.0 10.0 0.00 0.00 0.00 86 1007.9
20200121130004 57 108 6.0 12.0 0.00 0.00 0.00 85 1008.2
20200121124504 57 92 6.0 10.0 0.00 0.00 0.00 83 1008.4
20200121123004 57 97 3.0 6.0 0.00 0.00 0.00 82 1008.6
20200121121504 58 104 2.0 3.0 0.00 0.00 0.00 80 1008.6
20200121120005 58 81 2.0 6.0 0.00 0.00 0.00 80 1008.8
20200121114504 58 89 4.0 7.0 0.00 0.00 0.00 78 1008.7
20200121113004 59 79 2.0 5.0 0.00 0.00 0.00 76 1008.6
20200121111504 60 96 2.0 10.0 0.00 0.00 0.00 74 1008.7
20200121110005 60 111 1.0 3.0 0.00 0.00 0.00 73 1008.7
20200121104504 61 115 0.0 2.0 0.00 0.00 0.00 72 1008.6
20200121103005 61 106 2.0 8.0 0.00 0.00 0.00 71 1008.5